TIANYAN 01

Last updated on Sun Apr 12 2026 00:03:15 GMT+0000 (Coordinated Universal Time)

1 44881U 19093C 26101.46999733 .00000246 00000+0 33937-4 0 9997 2 44881 97.7559 175.3240 0012485 310.9945 49.0190 14.86412478341503
UTC large
Height (km)
Speed (km/s)
/
Latitude / Longitude
Inclination (degrees)
Orbital Period (minutes)
Azimuth
Elevation
Range (km)
Doppler Factor

Next 0 passes for location: London (51.5072 / 0.1276)

Sorry there are no passes over London.